Wind_Speed
42 42 42 43 44 45 47 48 49 51 51 52 53 54 55 57 58 59 59 59 60 60 60 60 60 60 60 61 62 63 63 64 64 65 66 67 67 67 67 66 66 65 64
41 42 43 45 46 48 50 52 53 54 56 57 58 58 59 61 62 62 62 62 62 62 61 61 61 61 61 62 62 62 63 64 64 63 64 64 64 64 63 62 61 60 60
42 43 45 47 49 51 53 55 56 58 59 61 62 63 63 63 64 64 63 63 62 62 61 60 60 60 61 61 61 62 62 62 63 61 60 60 59 58 57 57 56 56 55
44 46 48 50 53 55 56 57 59 60 61 62 63 63 64 63 63 63 62 61 61 60 59 59 59 59 59 59 60 60 60 59 58 57 56 55 54 54 53 51 50 48 47
45 47 49 51 53 54 56 57 58 59 60 61 61 62 62 61 60 59 57 57 57 57 57 57 57 57 57 57 57 57 56 54 53 53 52 50 48 47 46 44 41 39 38
43 45 46 47 48 50 52 54 55 56 57 57 56 56 55 55 55 55 55 55 55 55 55 55 55 55 55 54 53 53 51 49 47 46 44 42 40 38 36 34 33 32 32
41 42 43 44 45 47 48 49 50 50 50 51 52 52 52 52 53 53 53 53 53 53 53 53 52 51 49 48 48 46 44 42 41 39 36 33 31 29 28 28 29 30 30
39 40 41 42 44 45 46 47 47 47 48 49 49 50 50 51 51 51 51 51 50 49 48 46 45 44 43 42 40 39 38 36 33 30 27 25 25 24 25 25 26 26 27
37 38 40 42 42 43 44 44 45 46 46 47 47 47 47 47 47 46 45 44 43 42 41 40 39 39 37 34 33 32 30 27 25 23 22 21 21 21 22 23 23 23 24
35 37 38 40 40 41 42 42 43 43 43 44 44 43 43 42 42 41 39 39 38 37 35 34 33 31 28 26 25 23 21 20 19 19 19 18 19 19 20 21 21 22 22
34 36 37 37 38 39 40 40 40 41 41 41 40 39 38 38 36 35 34 33 32 30 28 26 24 22 20 18 16 15 14 14 14 15 16 16 17 18 19 20 20 21 21
32 32 33 35 36 37 37 38 38 37 37 36 36 35 33 32 30 29 28 26 24 22 20 18 16 14 12 10 9 9 10 10 11 13 14 15 17 18 19 19 20 21 21
29 31 32 34 34 35 34 34 33 32 31 30 29 27 26 24 23 21 20 18 16 14 12 9 8 6 5 5 6 7 8 9 11 12 14 15 16 18 19 20 20 21 21
28 30 31 32 31 30 28 26 25 24 23 21 20 18 17 16 14 13 11 10 8 5 3 2 2 2 3 4 5 6 8 9 11 13 14 16 17 18 19 20 21 21 22
26 28 28 27 24 23 21 20 19 18 17 15 14 13 11 9 7 5 3 1 1 2 3 4 5 5 5 6 7 8 9 11 12 14 15 17 18 19 20 20 21 21 21
24 25 24 22 20 18 17 16 15 15 14 12 11 9 8 5 4 4 5 5 6 7 7 8 8 8 8 8 9 10 11 12 13 15 17 18 19 20 20 21 21 21 22
22 22 20 19 17 15 14 14 14 13 12 11 10 9 8 7 7 7 8 8 9 9 9 10 10 10 11 11 11 11 12 14 15 17 18 19 20 21 21 21 21 21 22
20 19 18 17 15 14 13 13 12 12 11 11 10 10 9 9 9 9 10 10 11 11 11 11 11 12 12 12 12 13 14 15 16 18 19 20 21 21 21 21 21 21 21
17 17 17 16 15 14 13 12 11 12 12 12 12 11 11 11 11 11 11 12 12 12 12 12 12 12 12 12 13 14 15 16 18 19 20 21 21 21 21 21 21 21 21
16 15 15 15 14 13 13 12 12 12 12 12 12 12 12 12 12 13 13 13 13 13 12 12 12 12 12 13 13 15 16 18 19 20 21 22 22 22 21 21 21 21 20
14 14 13 13 12 12 12 12 12 12 12 13 13 13 13 13 13 14 14 13 13 13 12 12 12 12 12 13 14 15 16 18 19 20 21 22 22 22 22 22 21 21 20
11 11 11 11 11 11 11 12 12 13 13 13 13 13 13 13 13 13 13 13 12 12 12 11 11 12 12 13 14 15 17 18 19 20 21 22 22 22 22 22 22 21 20
10 9 9 9 9 10 10 11 12 12 13 13 13 12 12 13 13 12 12 12 11 11 10 11 11 11 12 13 14 15 17 17 18 20 21 21 22 22 22 22 22 22 21
9 8 8 8 8 9 9 10 11 11 12 12 12 12 11 11 11 11 11 11 10 10 9 10 10 11 11 13 14 15 16 17 18 19 20 21 22 22 22 22 22 22 21
8 8 8 8 8 8 9 9 10 10 11 11 11 11 10 10 10 9 9 9 9 9 9 9 10 11 11 12 13 14 15 16 18 19 20 21 21 22 22 22 22 22 22
10 9 9 8 8 8 8 9 9 9 10 10 10 10 9 9 9 9 9 8 8 9 9 9 10 11 11 12 13 14 15 16 17 18 19 20 20 21 22 22 22 22 21
Wind_Direction
269 269 270 272 274 276 278 281 282 282 283 285 286 287 287 288 289 290 290 290 289 289 289 290 289 289 290 290 290 290 289 289 289 289 288 288 288 288 289 289 289 289 289
266 268 270 272 274 276 278 279 281 282 283 285 285 286 287 288 289 289 288 288 289 289 290 290 289 290 290 291 291 291 291 291 291 290 290 290 290 290 291 291 291 291 290
267 269 271 273 274 275 277 278 279 281 282 284 284 285 286 286 287 287 287 288 289 289 290 290 290 290 290 291 291 291 291 292 292 292 292 292 291 291 292 292 292 292 291
268 270 272 274 275 276 276 278 279 280 281 282 283 284 284 285 285 286 286 287 288 288 289 289 289 290 290 291 291 292 292 293 294 294 294 293 293 294 294 293 294 294 294
270 271 273 273 275 277 278 279 280 280 280 281 281 283 283 284 285 286 287 288 288 288 288 288 289 289 290 291 291 292 293 294 295 295 296 296 296 296 296 296 297 297 297
276 277 278 280 280 282 283 282 280 281 281 282 284 285 285 286 286 286 286 287 287 287 287 288 288 289 290 291 292 293 293 294 295 297 298 298 298 298 300 301 302 302 302
286 285 284 285 286 287 287 285 285 286 287 287 287 287 286 286 285 285 285 286 286 286 286 287 288 289 290 291 292 293 294 295 297 299 300 300 301 303 305 306 307 307 307
287 286 288 288 289 288 289 290 290 289 288 287 287 286 285 284 284 284 285 285 286 286 287 287 288 289 290 292 293 294 297 299 302 304 305 307 309 311 312 312 312 312 313
291 291 291 291 291 291 291 290 289 289 288 287 286 286 286 286 286 286 287 287 288 288 288 288 288 289 291 292 294 296 300 303 307 310 314 318 320 320 321 321 321 321 320
294 294 294 294 294 293 292 292 291 290 289 289 288 288 287 287 287 287 287 288 288 287 287 287 288 289 290 292 296 299 303 309 314 319 325 328 329 330 331 331 330 329 328
298 298 297 297 297 296 295 294 293 293 292 291 290 289 288 287 287 286 286 286 286 287 288 289 289 290 292 296 300 304 311 318 325 330 335 337 338 339 339 338 338 337 336
301 302 302 302 301 300 299 298 296 295 294 293 292 291 289 287 286 286 286 285 285 286 288 289 290 294 300 305 311 319 327 334 340 342 343 344 345 345 345 344 344 344 344
308 309 309 308 307 305 304 302 301 300 298 296 295 293 291 290 289 288 286 286 285 286 288 290 296 307 319 330 343 349 351 353 354 352 351 351 350 349 350 350 350 350 350
315 315 315 314 312 311 311 310 310 310 308 306 305 303 300 298 295 292 289 288 288 290 293 310 349 19 23 24 19 13 10 7 3 0 359 357 356 355 355 355 355 355 355
324 324 324 323 321 321 322 321 323 324 325 324 323 321 320 318 316 317 322 345 79 95 90 84 80 71 61 51 41 32 26 20 12 8 6 4 2 1 1 0 1 1 1
333 334 334 333 333 334 336 337 338 339 341 343 346 350 357 8 26 55 79 90 94 94 92 89 85 76 67 59 50 40 33 25 19 15 11 8 6 4 4 4 5 6 6
342 344 345 346 348 350 350 350 349 351 356 3 10 21 35 50 63 78 88 93 95 94 93 92 85 75 66 59 50 42 34 27 21 17 13 10 8 7 7 8 9 10 12
353 356 356 358 1 2 2 4 5 10 16 23 31 42 54 65 76 85 92 95 97 96 96 91 82 73 65 57 49 41 33 27 21 17 14 12 10 10 11 12 14 16 18
0 5 7 8 10 13 15 17 21 27 33 39 46 57 65 72 80 88 92 96 98 97 94 87 78 70 62 53 45 36 30 26 22 18 16 14 14 14 15 17 18 20 24
5 8 10 13 17 22 26 31 36 39 42 47 55 64 70 77 85 91 94 95 95 93 88 82 74 65 56 47 39 34 29 24 20 18 18 18 19 19 20 21 22 25 28
6 10 13 17 21 27 32 37 43 47 51 56 62 69 76 82 86 90 93 92 90 86 82 76 68 59 50 42 37 31 26 22 20 21 22 22 22 23 24 25 26 29 32
3 8 12 18 24 31 38 44 49 54 58 62 68 74 79 83 86 88 89 88 86 82 77 70 61 53 46 40 34 28 25 23 24 26 27 27 27 28 29 30 31 33 35
0 5 12 21 31 37 43 48 54 58 61 65 71 77 81 83 84 85 85 83 81 77 71 62 54 48 42 37 32 29 29 30 30 30 29 30 30 31 32 33 35 37 39
11 14 20 30 39 44 48 53 57 60 63 66 71 76 81 82 83 84 82 80 76 71 65 57 50 44 38 34 33 34 35 34 32 31 31 31 31 32 34 35 38 40 42
29 32 37 44 50 53 55 58 61 63 65 68 71 75 78 79 81 81 81 77 71 65 59 55 49 42 38 38 40 40 39 36 34 33 33 33 34 35 36 37 40 42 44
42 46 50 54 59 61 61 62 65 67 68 69 71 73 76 77 78 79 78 73 67 63 59 54 48 45 44 46 45 43 39 36 34 34 34 36 37 37 37 39 41 43 46
Height
5796 5794 5793 5792 5790 5788 5785 5783 5781 5779 5777 5774 5771 5768 5765 5762 5759 5756 5752 5749 5745 5741 5737 5733 5729 5724 5719 5714 5709 5703 5698 5693 5689 5683 5675 5668 5661 5655 5649 5643 5637 5631 5625
5786 5785 5784 5782 5780 5778 5776 5773 5770 5767 5765 5762 5759 5755 5752 5748 5745 5741 5737 5734 5730 5726 5722 5718 5713 5709 5703 5698 5693 5687 5682 5676 5671 5666 5659 5651 5644 5638 5633 5627 5620 5614 5609
5776 5775 5774 5772 5769 5767 5764 5761 5758 5755 5752 5748 5745 5741 5737 5733 5730 5726 5722 5718 5714 5710 5706 5702 5697 5693 5688 5682 5677 5671 5666 5660 5654 5650 5643 5636 5629 5622 5617 5611 5605 5599 5593
5766 5764 5762 5760 5757 5755 5752 5749 5745 5742 5738 5734 5730 5726 5722 5718 5714 5711 5707 5703 5699 5695 5690 5686 5682 5677 5672 5667 5662 5656 5651 5645 5639 5633 5628 5621 5614 5608 5603 5597 5592 5585 5580
5754 5752 5750 5747 5745 5741 5738 5735 5731 5727 5723 5719 5715 5711 5707 5703 5699 5695 5691 5687 5683 5679 5675 5672 5667 5662 5657 5652 5647 5642 5636 5631 5625 5620 5614 5608 5601 5596 5590 5585 5580 5575 5569
5742 5740 5737 5734 5731 5728 5724 5720 5717 5713 5709 5704 5700 5695 5691 5687 5684 5680 5676 5672 5668 5665 5661 5657 5652 5648 5643 5638 5633 5628 5623 5619 5613 5608 5602 5596 5591 5586 5580 5575 5570 5566 5561
5730 5727 5724 5721 5717 5714 5710 5706 5702 5698 5694 5690 5685 5681 5677 5673 5669 5665 5661 5657 5654 5650 5646 5643 5638 5634 5630 5625 5620 5616 5612 5607 5603 5598 5593 5588 5583 5578 5574 5569 5563 5558 5553
5719 5715 5712 5708 5705 5701 5697 5692 5688 5684 5680 5675 5671 5666 5662 5658 5654 5650 5646 5643 5639 5636 5632 5629 5625 5622 5618 5614 5610 5606 5602 5598 5594 5590 5585 5581 5576 5572 5567 5562 5557 5552 5546
5708 5704 5700 5696 5692 5688 5683 5679 5674 5670 5665 5661 5656 5652 5647 5643 5639 5636 5632 5629 5626 5623 5620 5617 5615 5612 5608 5605 5602 5598 5595 5591 5587 5584 5580 5575 5571 5567 5562 5557 5552 5547 5541
5698 5694 5689 5685 5680 5675 5670 5665 5661 5656 5652 5647 5643 5638 5634 5630 5626 5623 5621 5618 5615 5612 5610 5607 5605 5603 5600 5598 5595 5593 5590 5586 5583 5579 5576 5572 5568 5563 5558 5554 5548 5543 5537
5688 5683 5678 5673 5668 5663 5658 5653 5648 5643 5639 5634 5630 5625 5621 5618 5615 5612 5610 5608 5605 5603 5601 5600 5598 5596 5594 5592 5590 5588 5586 5583 5580 5577 5574 5570 5566 5561 5556 5551 5546 5540 5534
5679 5674 5668 5663 5658 5652 5647 5641 5636 5631 5627 5622 5618 5614 5611 5608 5605 5603 5601 5599 5598 5596 5595 5594 5593 5592 5590 5589 5587 5586 5584 5581 5579 5576 5572 5568 5564 5560 5555 5549 5544 5538 5532
5670 5665 5659 5653 5647 5642 5636 5631 5625 5620 5616 5612 5608 5605 5602 5599 5597 5596 5594 5593 5592 5592 5591 5590 5590 5589 5588 5587 5586 5584 5582 5580 5578 5575 5572 5568 5564 5559 5554 5548 5542 5537 5531
5662 5657 5651 5644 5638 5632 5627 5622 5617 5613 5609 5605 5602 5599 5596 5594 5592 5591 5590 5590 5589 5589 5589 5589 5589 5588 5588 5587 5586 5584 5583 5580 5578 5575 5571 5567 5563 5558 5553 5547 5542 5536 5530
5656 5650 5643 5637 5631 5626 5621 5617 5613 5608 5604 5601 5598 5595 5593 5591 5589 5588 5588 5588 5588 5589 5589 5589 5589 5589 5588 5588 5587 5585 5583 5581 5578 5575 5571 5567 5563 5558 5552 5547 5541 5536 5530
5651 5644 5638 5632 5627 5622 5618 5614 5610 5607 5603 5600 5597 5594 5592 5590 5589 5589 5589 5589 5589 5590 5590 5591 5591 5590 5590 5589 5588 5586 5584 5582 5579 5576 5572 5567 5563 5558 5552 5547 5542 5537 5531
5647 5641 5635 5630 5625 5621 5617 5613 5610 5607 5603 5600 5597 5595 5593 5592 5591 5591 5591 5591 5592 5592 5593 5593 5593 5593 5592 5591 5590 5588 5586 5584 5580 5576 5572 5568 5563 5558 5553 5548 5543 5538 5532
5644 5639 5634 5629 5625 5621 5617 5614 5611 5607 5605 5602 5599 5597 5596 5595 5594 5594 5594 5594 5595 5595 5596 5596 5596 5596 5595 5594 5592 5591 5588 5585 5581 5578 5573 5569 5564 5559 5554 5549 5544 5539 5534
5643 5639 5634 5630 5626 5623 5619 5616 5613 5610 5607 5604 5602 5600 5599 5598 5598 5598 5598 5598 5599 5599 5599 5599 5599 5599 5598 5597 5595 5593 5590 5587 5583 5579 5575 5570 5565 5561 5556 5551 5547 5542 5537
5643 5639 5636 5632 5628 5625 5621 5618 5616 5613 5610 5608 5606 5605 5603 5603 5602 5602 5602 5602 5603 5603 5603 5603 5603 5602 5601 5600 5598 5595 5592 5589 5585 5581 5577 5572 5567 5563 5558 5553 5549 5544 5540
5644 5640 5637 5634 5630 5627 5624 5622 5619 5616 5614 5612 5611 5609 5608 5607 5607 5607 5607 5607 5607 5607 5607 5607 5606 5605 5604 5602 5600 5597 5594 5591 5587 5583 5579 5574 5570 5565 5561 5556 5552 5547 5543
5644 5641 5638 5635 5632 5630 5627 5625 5622 5620 5618 5617 5615 5614 5613 5612 5612 5612 5612 5612 5612 5611 5611 5611 5610 5608 5607 5605 5602 5600 5596 5593 5590 5586 5582 5577 5573 5568 5564 5559 5555 5551 5547
5643 5641 5639 5636 5634 5632 5630 5628 5626 5624 5623 5621 5620 5619 5618 5617 5617 5616 5616 5616 5616 5615 5614 5614 5612 5611 5609 5607 5605 5602 5599 5596 5593 5589 5585 5581 5576 5572 5568 5563 5559 5555 5551
5643 5641 5639 5637 5636 5634 5632 5631 5629 5628 5627 5625 5624 5623 5622 5622 5621 5621 5620 5620 5619 5618 5618 5616 5615 5614 5612 5610 5607 5605 5602 5599 5596 5592 5588 5584 5580 5576 5572 5568 5564 5560 5556
5643 5642 5640 5638 5637 5636 5635 5634 5633 5631 5630 5629 5628 5627 5627 5626 5625 5625 5624 5623 5622 5622 5620 5619 5618 5616 5614 5612 5610 5607 5605 5602 5599 5595 5592 5588 5584 5580 5576 5573 5569 5565 5562
5645 5643 5641 5640 5639 5638 5638 5637 5636 5635 5634 5633 5632 5631 5630 5629 5629 5628 5627 5626 5625 5624 5623 5622 5620 5619 5617 5615 5613 5611 5608 5605 5602 5599 5595 5592 5588 5585 5581 5578 5574 5570 5567